Regional Weather Roundup
Issued by NWS

Home | Current Version | Previous Version | Graphics & Text | Print | Product List | Glossary On
Versions: 1 2 3 4 5 6 7 8 9 10 11 12 13 14 15 16 17 18 19 20 21 22 23 24 25 26 27 28 29 30 31 32 33 34 35 36 37 38 39 40 41 42 43 44 45 46 47 48 49 50
000
ASUS43 KMPX 230901
RWRMN
WEATHER ROUNDUP FOR MINNESOTA
NATIONAL WEATHER SERVICE TWIN CITIES/CHANHASSEN MN
400 AM CDT TUE MAY 23 2017


NOTE: "FAIR" INDICATES FEW OR NO CLOUDS BELOW 12,000 FEET WITH NO
SIGNIFICANT WEATHER AND/OR OBSTRUCTIONS TO VISIBILITY. N/A MEANS
CURRENT SKY AND/OR WEATHER CONDITIONS ARE NOT AVAILABLE.

MNZ060>063-068>070-231000-
   Twin Cities Metro

CITY           SKY/WX    TMP DP  RH WIND       PRES   REMARKS
TWIN CITIES    CLOUDY    52  44  74 NW5       29.80F
ST PAUL        CLOUDY    51  50  96 CALM      29.81F
CRYSTAL        CLOUDY    50  41  71 NW3       29.80S
BLAINE         MOCLDY    52  45  76 NW3       29.81S
LAKEVILLE      CLOUDY    48  48 100 W3        29.80F
EDEN PRAIRIE   CLOUDY    52  43  71 N5        29.80S
SOUTH ST PAUL  CLOUDY    51  50  95 CALM      29.80S
LAKE ELMO      MOCLDY    50  48  93 CALM      29.82S
$$
MNZ001>005-007-008-013>017-022>024-027-028-231000-
   Northwest Minnesota

CITY           SKY/WX    TMP DP  RH WIND       PRES   REMARKS
BEMIDJI        DRIZZLE   45  45  98 N6        29.85S
HALLOCK        CLOUDY    48  45  87 N12       29.96S
ROSEAU         CLOUDY    46  43  87 N13       29.93S
WARROAD        CLOUDY    46  45  93 NE15G25   29.93S
CROOKSTON      DRIZZLE   46  46 100 N14       29.92S
FOSSTON        DRIZZLE   45  43  93 N10       29.88S
DETROIT LAKES  LGT RAIN  45  45 100 N9G16     29.87F
MOORHEAD       LGT RAIN  46  45  93 N14       29.90S
PARK RAPIDS    CLOUDY    46  43  89 NW6       29.83S
MAHNOMEN       DRIZZLE   45  44  97 N9        29.87S
$$
MNZ006-009>011-018-025>026-231000-
   North Central Minnesota

CITY           SKY/WX    TMP DP  RH WIND       PRES   REMARKS
BAUDETTE       CLOUDY    46  44  93 NE13      29.89S
FLAG ISLAND    CLOUDY    48  43  81 NE18      29.93S
INTL FALLS     CLOUDY    47  45  93 NE9       29.86R
WASKISH        DRIZZLE   46  46 100 N10       29.86S
BIG FORK       DRZL/FOG  46  45  93 CALM      29.84R VSB 1
LONGVILLE      CLOUDY    45  45 100 CALM      29.83S
GRAND RAPIDS   CLOUDY    44  43  96 N3        29.85S
CRANE LAKE     CLOUDY    37  37 100 CALM      29.86S
ORR            CLOUDY    45  41  87 CALM      29.82S
COOK           FOG       37  37 100 CALM      29.84S VSB 1
WALKER         HVY RAIN  44  44  99 CALM      29.84S
$$
MNZ012-019>021-037-231000-
   Northeast Minnesota

CITY           SKY/WX    TMP DP  RH WIND       PRES   REMARKS
DULUTH         CLOUDY    47  44  90 N5        29.81R
ELY            FOG       34  34 100 CALM      29.83S VSB 3/4
HIBBING        FOG       41  41 100 CALM      29.83R VSB 1/4
EVELETH        PTCLDY    36  34  93 CALM      29.84R
DULUTH HARBOR  CLOUDY    48  46  93 CALM      29.82S
TWO HARBORS    CLOUDY    50  45  81 CALM      29.80R
SILVER BAY     CLOUDY    46  45  93 CALM      29.80R
GRAND MARAIS     N/A     49  43  80 N9        29.80S
G MARAIS ARPRT PTCLDY    39  36  87 N8        29.81F
$$
MNZ029>031-032-039>041-046>048-054>057-064-231000-
   West Central Minnesota

CITY           SKY/WX    TMP DP  RH WIND       PRES   REMARKS
FERGUS FALLS   CLOUDY    46  46 100 N8        29.86F
WHEATON        LGT RAIN  46  45  93 NW10      29.89F
MORRIS         DRIZZLE   46  46 100 N9        29.85F
ALEXANDRIA     CLOUDY    46  45  96 NW7       29.85S
ELBOW LAKE     LGT RAIN  46  46  99 N10       29.86S
WADENA         CLOUDY    45  43  93 NW6       29.84S
GLENWOOD       LGT RAIN  46  45  93 NW6       29.85S
APPLETON       DRIZZLE   48  45  87 N9        29.86S
BENSON         LGT RAIN  46  45  93 N7        29.87S
ORTONVILLE     DRIZZLE   46  45  93 NW9       29.87S
MADISON        DRIZZLE   50  50 100 N12       29.86F
WILLMAR        MOCLDY    46  46 100 NW6       29.85F
$$
MNZ033>034-036-042>043-049>051-058-059-231000-
   Central Minnesota

CITY           SKY/WX    TMP DP  RH WIND       PRES   REMARKS
ST CLOUD       CLOUDY    47  46  97 NW7       29.82S
SAUK CENTRE    LGT RAIN  45  43  95 NW6       29.84S
PAYNESVILLE    DRIZZLE   45  46 100 NW6       29.84S
AITKIN         CLOUDY    45  43  93 CALM      29.81S
PINE RIVER     CLOUDY    45  45 100 CALM      29.87S
BRAINERD       CLOUDY    45  44  97 NW5       29.83S
STAPLES        DRIZZLE   45  43  93 NW5       29.84S
LONG PRAIRIE   DRIZZLE   43  43 100 NW5       29.84S
LITTLE FALLS   RAIN      45  43  93 CALM      29.84S
LITCHFIELD     LGT RAIN  48  46  93 NW6       29.83S
BUFFALO        CLOUDY    47  43  84 NW5       29.82S
MAPLE LAKE     CLOUDY    48  46  90 NW6       29.83R
HUTCHINSON     CLOUDY    50  46  88 NW8       29.83S
$$
MNZ037-044-045-052-053-231000-
   East Central Minnesota

CITY           SKY/WX    TMP DP  RH WIND       PRES   REMARKS
PRINCETON      CLOUDY    46  45  93 CALM      29.82S
MORA           CLOUDY    45  45 100 CALM      29.83S
CAMBRIDGE      MOCLDY    45  41  87 CALM      29.80R
RUSH CITY      CLOUDY    44  43  97 CALM      29.81S
MOOSE LAKE     CLOUDY    45  43  93 CALM      29.80F
HINCKLEY       FAIR      41  41 100 N3        29.81S
CLOQUET        CLOUDY    45  43  93 N5        29.81S
MCGREGOR       CLOUDY    45  45 100 NW3       29.83S
$$
MNZ071>073-080-081-089-090-097-098-231000-
   Southwest Minnesota

CITY           SKY/WX    TMP DP  RH WIND       PRES   REMARKS
MONTEVIDEO     LGT RAIN  46  45  93 VRB9      29.86S
CANBY          CLOUDY    48  46  92 W3        29.88S
MARSHALL       CLOUDY    47  46  97 NW16      29.85F
REDWOOD FALLS  LGT RAIN  48  44  86 NW7       29.84S
OLIVIA         DRIZZLE   46  43  87 N8        29.84S
PIPESTONE      RAIN      46  43  87 NW13      29.86F
WINDOM         LGT RAIN  48  45  87 NW9       29.85S
WORTHINGTON    LGT RAIN  47  44  90 NW13      29.87S
JACKSON        DRIZZLE   48  45  87 NW9       29.85S
TRACY          CLOUDY    47  46  94 NW6       29.85F
SLAYTON        CLOUDY    44  43  94 NW9       29.87S
$$
MNZ065>067-074>077-082>085-091>093-231000-
   South Central Minnesota

CITY           SKY/WX    TMP DP  RH WIND       PRES   REMARKS
MANKATO        CLOUDY    49  46  90 NW9       29.82F
NEW ULM        CLOUDY    48  43  81 NW10      29.83S
ST JAMES       CLOUDY    48  45  87 NW12      29.84F
FAIRMONT       CLOUDY    50  45  83 NW12      29.84S
GLENCOE        CLOUDY    51  47  85 NW6       29.81F
FARIBAULT      CLOUDY    52  48  87 W3        29.80F
OWATONNA       CLOUDY    50  45  81 W3        29.80F
WASECA         CLOUDY    50  46  87 W6        29.82S
ALBERT LEA     CLOUDY    52  48  87 W5        29.80F
$$
MNZ078>079-086>088-094>096-231000-
   Southeast Minnesota

CITY           SKY/WX    TMP DP  RH WIND       PRES   REMARKS
ROCHESTER      CLOUDY    50  48  93 N13       29.79F
RED WING       CLOUDY    52  46  82 CALM      29.79F
STANTON        CLOUDY    51  47  87 CALM      29.79S
DODGE CENTER   CLOUDY    48  46  93 NW5       29.79F
WINONA         RAIN      54  52  94 NW9       29.77S
AUSTIN         CLOUDY    48  46  93 CALM      29.79F
PRESTON        CLOUDY    49  47  92 NW8       29.78S
$$
ABBREVIATIONS USED IN REMARKS
   TC - TEMPERATURES IN CELSIUS
  WCI - WIND CHILL INDEX
   HX - HEAT INDEX
  VSB - VISIBILITY
$$




USA.gov is the U.S. government's official web portal to all federal, state and local government web resources and services.